PSMNG SBSP-SBRJ

Flight info

Callsign PSMNG
Flight time 0h 43m
Altitude 33000
Route NIBRU UZ171 KEVUN
Aircraft E50P/L-SBDFGRWY/LB2

Departure

Time 2026-05-04 22:26
Airport Congonhas–Deputado Freitas Nobre Airport (SBSP)

Arrival

Time 2026-05-04 23:10
Airport Santos Dumont Airport (SBRJ)
Time Latitude Longitude Altitude Speed Heading
2026-05-04 22:17 -23.62610 -46.65304 2596 ft 0 kts 148°
2026-05-04 22:22 -23.62613 -46.65304 2596 ft 1 kts 189°
2026-05-04 22:22 -23.62632 -46.65310 2596 ft 2 kts 231°
2026-05-04 22:22 -23.62623 -46.65331 2596 ft 5 kts 324°
2026-05-04 22:22 -23.62573 -46.65365 2596 ft 11 kts 328°
2026-05-04 22:23 -23.62504 -46.65412 2596 ft 13 kts 327°
2026-05-04 22:23 -23.62454 -46.65448 2596 ft 14 kts 328°
2026-05-04 22:23 -23.62368 -46.65506 2593 ft 15 kts 326°
2026-05-04 22:23 -23.62244 -46.65594 2597 ft 17 kts 328°
2026-05-04 22:24 -23.62178 -46.65638 2597 ft 16 kts 327°
2026-05-04 22:24 -23.62117 -46.65680 2597 ft 0 kts 327°
2026-05-04 22:25 -23.62111 -46.65688 2597 ft 4 kts 295°
2026-05-04 22:25 -23.62120 -46.65721 2594 ft 0 kts 238°
2026-05-04 22:25 -23.62128 -46.65735 2599 ft 5 kts 230°
2026-05-04 22:26 -23.62196 -46.65719 2598 ft 26 kts 146°
2026-05-04 22:26 -23.62559 -46.65466 2596 ft 96 kts 147°
2026-05-04 22:26 -23.63212 -46.65015 2879 ft 117 kts 146°
2026-05-04 22:26 -23.63915 -46.64491 3257 ft 130 kts 144°
2026-05-04 22:27 -23.64652 -46.63837 3579 ft 149 kts 125°
2026-05-04 22:27 -23.65177 -46.62777 3964 ft 169 kts 116°
2026-05-04 22:27 -23.65752 -46.61554 4321 ft 195 kts 119°
2026-05-04 22:27 -23.66485 -46.60221 4792 ft 216 kts 121°
2026-05-04 22:28 -23.67255 -46.58824 5649 ft 215 kts 120°
2026-05-04 22:28 -23.68006 -46.57351 6282 ft 226 kts 117°
2026-05-04 22:28 -23.68742 -46.55822 6990 ft 229 kts 119°
2026-05-04 22:28 -23.69530 -46.54303 7622 ft 232 kts 120°
2026-05-04 22:29 -23.70317 -46.52758 8256 ft 234 kts 119°
2026-05-04 22:29 -23.71111 -46.51189 8887 ft 237 kts 120°
2026-05-04 22:29 -23.71754 -46.49518 9495 ft 241 kts 102°
2026-05-04 22:29 -23.71852 -46.47685 10087 ft 244 kts 85°
2026-05-04 22:30 -23.71582 -46.45848 10622 ft 246 kts 80°
2026-05-04 22:30 -23.71336 -46.43987 11172 ft 249 kts 82°
2026-05-04 22:30 -23.71078 -46.42112 11722 ft 251 kts 81°
2026-05-04 22:30 -23.70799 -46.40222 12217 ft 254 kts 81°
2026-05-04 22:31 -23.70528 -46.38309 12769 ft 256 kts 81°
2026-05-04 22:31 -23.70254 -46.36383 13318 ft 258 kts 81°
2026-05-04 22:31 -23.69979 -46.34441 13875 ft 261 kts 81°
2026-05-04 22:31 -23.69701 -46.32499 14353 ft 264 kts 81°
2026-05-04 22:32 -23.69418 -46.30505 14819 ft 267 kts 82°
2026-05-04 22:32 -23.69130 -46.28489 15285 ft 271 kts 81°
2026-05-04 22:32 -23.68836 -46.26444 15770 ft 274 kts 81°
2026-05-04 22:32 -23.68541 -46.24376 16258 ft 277 kts 81°
2026-05-04 22:33 -23.68243 -46.22283 16742 ft 281 kts 81°
2026-05-04 22:33 -23.67937 -46.20158 17239 ft 284 kts 81°
2026-05-04 22:33 -23.67630 -46.18012 17744 ft 288 kts 81°
2026-05-04 22:33 -23.67318 -46.15841 18247 ft 291 kts 81°
2026-05-04 22:34 -23.67002 -46.13642 18716 ft 295 kts 81°
2026-05-04 22:34 -23.66682 -46.11414 19169 ft 299 kts 81°
2026-05-04 22:34 -23.66361 -46.09169 19626 ft 302 kts 82°
2026-05-04 22:34 -23.66035 -46.06888 20082 ft 306 kts 81°
2026-05-04 22:35 -23.65703 -46.04587 20562 ft 309 kts 81°
2026-05-04 22:35 -23.65369 -46.02256 21034 ft 312 kts 82°
2026-05-04 22:35 -23.65030 -45.99901 21486 ft 316 kts 82°
2026-05-04 22:35 -23.64688 -45.97523 21971 ft 319 kts 82°
2026-05-04 22:36 -23.64341 -45.95122 22433 ft 323 kts 82°
2026-05-04 22:36 -23.63990 -45.92683 22888 ft 327 kts 82°
2026-05-04 22:36 -23.63770 -45.91156 23180 ft 329 kts 82°
2026-05-04 22:37 -23.63415 -45.88710 23642 ft 333 kts 82°
2026-05-04 22:37 -23.63051 -45.86202 24051 ft 336 kts 82°
2026-05-04 22:37 -23.62686 -45.83674 24434 ft 339 kts 81°
2026-05-04 22:37 -23.62321 -45.81162 25139 ft 324 kts 81°
2026-05-04 22:38 -23.61974 -45.78776 25912 ft 317 kts 81°
2026-05-04 22:38 -23.61625 -45.76380 26329 ft 322 kts 81°
2026-05-04 22:38 -23.61272 -45.73949 26814 ft 325 kts 81°
2026-05-04 22:38 -23.60920 -45.71528 27274 ft 329 kts 80°
2026-05-04 22:39 -23.60553 -45.69022 27715 ft 333 kts 80°
2026-05-04 22:39 -23.60193 -45.66552 28164 ft 335 kts 80°
2026-05-04 22:39 -23.59824 -45.64034 28641 ft 338 kts 80°
2026-05-04 22:39 -23.59451 -45.61482 29088 ft 341 kts 79°
2026-05-04 22:40 -23.59073 -45.58914 29546 ft 344 kts 79°
2026-05-04 22:40 -23.58695 -45.56326 29981 ft 348 kts 79°
2026-05-04 22:40 -23.58310 -45.53708 30373 ft 351 kts 79°
2026-05-04 22:40 -23.57921 -45.51072 30738 ft 353 kts 79°
2026-05-04 22:41 -23.57533 -45.48433 31191 ft 352 kts 79°
2026-05-04 22:41 -23.57094 -45.45815 31611 ft 350 kts 75°
2026-05-04 22:41 -23.56527 -45.43234 32002 ft 351 kts 74°
2026-05-04 22:41 -23.55976 -45.40642 32395 ft 351 kts 75°
2026-05-04 22:42 -23.55438 -45.38043 32788 ft 351 kts 75°
2026-05-04 22:42 -23.54889 -45.35446 33158 ft 353 kts 74°
2026-05-04 22:42 -23.54323 -45.32799 33161 ft 366 kts 74°
2026-05-04 22:42 -23.53726 -45.30001 32812 ft 390 kts 75°
2026-05-04 22:43 -23.53105 -45.27064 32277 ft 416 kts 75°
2026-05-04 22:43 -23.52438 -45.23913 31694 ft 438 kts 75°
2026-05-04 22:43 -23.51741 -45.20629 31014 ft 449 kts 75°
2026-05-04 22:43 -23.51033 -45.17307 30356 ft 452 kts 75°
2026-05-04 22:44 -23.50320 -45.13957 29603 ft 454 kts 75°
2026-05-04 22:44 -23.49602 -45.10603 28853 ft 455 kts 75°
2026-05-04 22:44 -23.48884 -45.07234 28117 ft 455 kts 75°
2026-05-04 22:44 -23.48167 -45.03879 27404 ft 454 kts 75°
2026-05-04 22:45 -23.47448 -45.00529 26704 ft 453 kts 76°
2026-05-04 22:45 -23.46030 -44.93915 25360 ft 448 kts 76°
2026-05-04 22:45 -23.45301 -44.90616 24706 ft 445 kts 75°
2026-05-04 22:46 -23.44564 -44.87360 24068 ft 442 kts 76°
2026-05-04 22:46 -23.43845 -44.84128 23370 ft 436 kts 76°
2026-05-04 22:46 -23.43146 -44.80950 22774 ft 426 kts 76°
2026-05-04 22:46 -23.42455 -44.77843 22220 ft 416 kts 76°
2026-05-04 22:47 -23.41777 -44.74812 21677 ft 408 kts 76°
2026-05-04 22:47 -23.41114 -44.71836 21144 ft 401 kts 76°
2026-05-04 22:47 -23.40469 -44.68947 20624 ft 394 kts 76°
2026-05-04 22:47 -23.39827 -44.66065 20102 ft 389 kts 76°
2026-05-04 22:48 -23.39191 -44.63225 19593 ft 384 kts 76°
2026-05-04 22:48 -23.38563 -44.60420 19098 ft 379 kts 76°
2026-05-04 22:48 -23.37942 -44.57642 18597 ft 375 kts 76°
2026-05-04 22:48 -23.37326 -44.54900 18063 ft 371 kts 76°
2026-05-04 22:49 -23.36720 -44.52190 17566 ft 365 kts 76°
2026-05-04 22:49 -23.36120 -44.49522 17088 ft 360 kts 76°
2026-05-04 22:49 -23.35529 -44.46892 16616 ft 355 kts 76°
2026-05-04 22:49 -23.34946 -44.44298 16149 ft 351 kts 76°
2026-05-04 22:50 -23.34281 -44.41764 15684 ft 346 kts 68°
2026-05-04 22:50 -23.33251 -44.39424 15233 ft 341 kts 63°
2026-05-04 22:50 -23.32258 -44.37099 14789 ft 337 kts 65°
2026-05-04 22:50 -23.31297 -44.34781 14354 ft 334 kts 65°
2026-05-04 22:51 -23.30326 -44.32533 13902 ft 331 kts 64°
2026-05-04 22:51 -23.29346 -44.30282 13440 ft 326 kts 64°
2026-05-04 22:51 -23.28393 -44.28060 13013 ft 322 kts 65°
2026-05-04 22:51 -23.27451 -44.25865 12590 ft 318 kts 64°
2026-05-04 22:52 -23.26517 -44.23694 12174 ft 315 kts 64°
2026-05-04 22:52 -23.25591 -44.21544 11761 ft 312 kts 64°
2026-05-04 22:52 -23.24674 -44.19418 11351 ft 310 kts 64°
2026-05-04 22:52 -23.23765 -44.17306 10947 ft 308 kts 64°
2026-05-04 22:53 -23.22859 -44.15206 10541 ft 306 kts 64°
2026-05-04 22:53 -23.21959 -44.13119 10138 ft 304 kts 64°
2026-05-04 22:53 -23.21063 -44.11045 9708 ft 302 kts 64°
2026-05-04 22:53 -23.20175 -44.08988 9311 ft 299 kts 64°
2026-05-04 22:54 -23.19270 -44.07001 9185 ft 286 kts 62°
2026-05-04 22:54 -23.18394 -44.05109 9179 ft 275 kts 63°
2026-05-04 22:54 -23.17582 -44.03295 9181 ft 266 kts 63°
2026-05-04 22:54 -23.16770 -44.01522 9178 ft 258 kts 62°
2026-05-04 22:55 -23.15972 -43.99800 9173 ft 253 kts 62°
2026-05-04 22:55 -23.15246 -43.98078 9170 ft 249 kts 65°
2026-05-04 22:55 -23.14520 -43.96388 9173 ft 245 kts 63°
2026-05-04 22:55 -23.13793 -43.94723 9171 ft 243 kts 64°
2026-05-04 22:56 -23.13083 -43.93063 9166 ft 241 kts 64°
2026-05-04 22:56 -23.12381 -43.91414 9171 ft 240 kts 64°
2026-05-04 22:56 -23.11677 -43.89770 9167 ft 239 kts 64°
2026-05-04 22:56 -23.10979 -43.88138 9164 ft 238 kts 64°
2026-05-04 22:57 -23.10280 -43.86505 9162 ft 238 kts 63°
2026-05-04 22:57 -23.09584 -43.84882 9161 ft 237 kts 63°
2026-05-04 22:57 -23.08881 -43.83240 9160 ft 246 kts 64°
2026-05-04 22:57 -23.08132 -43.81495 9159 ft 262 kts 64°
2026-05-04 22:58 -23.07339 -43.79644 9161 ft 279 kts 64°
2026-05-04 22:58 -23.06500 -43.77686 9100 ft 288 kts 64°
2026-05-04 22:58 -23.05657 -43.75718 8897 ft 286 kts 64°
2026-05-04 22:58 -23.04829 -43.73789 8650 ft 285 kts 64°
2026-05-04 22:59 -23.03990 -43.71837 8401 ft 285 kts 64°
2026-05-04 22:59 -23.03151 -43.69884 8143 ft 285 kts 65°
2026-05-04 22:59 -23.02307 -43.67936 7878 ft 285 kts 64°
2026-05-04 22:59 -23.01449 -43.65990 7620 ft 285 kts 65°
2026-05-04 23:00 -23.00633 -43.64130 7345 ft 285 kts 65°
2026-05-04 23:00 -22.99761 -43.62132 7019 ft 287 kts 65°
2026-05-04 23:00 -22.98918 -43.60212 7009 ft 276 kts 65°
2026-05-04 23:00 -22.98127 -43.58418 7013 ft 267 kts 65°
2026-05-04 23:01 -22.97447 -43.56872 7012 ft 261 kts 65°
2026-05-04 23:01 -22.96671 -43.55109 7006 ft 257 kts 65°
2026-05-04 23:01 -22.95908 -43.53372 7012 ft 254 kts 65°
2026-05-04 23:01 -22.95151 -43.51653 7001 ft 251 kts 66°
2026-05-04 23:02 -22.94407 -43.49955 7004 ft 248 kts 66°
2026-05-04 23:02 -22.93695 -43.48253 7008 ft 248 kts 67°
2026-05-04 23:02 -22.92973 -43.46525 6707 ft 258 kts 67°
2026-05-04 23:02 -22.92223 -43.44759 6193 ft 257 kts 66°
2026-05-04 23:03 -22.91484 -43.43019 5677 ft 256 kts 67°
2026-05-04 23:03 -22.90741 -43.41270 5264 ft 252 kts 67°
2026-05-04 23:03 -22.90029 -43.39591 4954 ft 244 kts 66°
2026-05-04 23:03 -22.89320 -43.37919 4644 ft 238 kts 68°
2026-05-04 23:04 -22.88646 -43.36313 4358 ft 231 kts 69°
2026-05-04 23:04 -22.88310 -43.34654 4070 ft 223 kts 90°
2026-05-04 23:04 -22.88359 -43.32988 3795 ft 219 kts 96°
2026-05-04 23:04 -22.88406 -43.31347 3519 ft 217 kts 94°
2026-05-04 23:05 -22.88449 -43.29736 3249 ft 210 kts 95°
2026-05-04 23:05 -22.88507 -43.28191 3015 ft 198 kts 95°
2026-05-04 23:05 -22.88557 -43.26779 2783 ft 178 kts 97°
2026-05-04 23:05 -22.88877 -43.25568 2562 ft 160 kts 119°
2026-05-04 23:06 -22.89307 -43.24488 2344 ft 152 kts 113°
2026-05-04 23:06 -22.89670 -43.23429 2151 ft 150 kts 116°
2026-05-04 23:06 -22.90051 -43.22428 1976 ft 137 kts 115°
2026-05-04 23:06 -22.90402 -43.21471 1805 ft 136 kts 116°
2026-05-04 23:07 -22.90909 -43.20616 1632 ft 134 kts 135°
2026-05-04 23:07 -22.91609 -43.19963 1464 ft 131 kts 149°
2026-05-04 23:07 -22.92414 -43.19557 1302 ft 125 kts 163°
2026-05-04 23:07 -22.93251 -43.19376 1150 ft 123 kts 177°
2026-05-04 23:08 -22.94054 -43.19145 985 ft 120 kts 145°
2026-05-04 23:08 -22.94541 -43.18456 853 ft 112 kts 120°
2026-05-04 23:08 -22.94687 -43.17648 716 ft 111 kts 86°
2026-05-04 23:08 -22.94439 -43.16855 576 ft 114 kts 59°
2026-05-04 23:09 -22.93834 -43.16292 426 ft 118 kts 28°
2026-05-04 23:09 -22.93055 -43.16137 309 ft 113 kts 356°
2026-05-04 23:09 -22.92276 -43.16212 175 ft 112 kts 360°
2026-05-04 23:09 -22.91508 -43.16255 32 ft 106 kts 356°
2026-05-04 23:10 -22.90870 -43.16293 19 ft 68 kts 356°
2026-05-04 23:10 -22.90565 -43.16314 19 ft 33 kts 357°
2026-05-04 23:10 -22.90489 -43.16382 18 ft 13 kts 262°
2026-05-04 23:10 -22.90497 -43.16492 18 ft 16 kts 266°
2026-05-04 23:11 -22.90533 -43.16556 17 ft 9 kts 175°
2026-05-04 23:11 -22.90573 -43.16554 17 ft 9 kts 177°
2026-05-04 23:11 -22.90662 -43.16548 17 ft 4 kts 176°
2026-05-04 23:11 -22.90664 -43.16548 17 ft 0 kts 176°
2026-05-04 23:12 -22.90666 -43.16550 17 ft 1 kts 222°
2026-05-04 23:12 -22.90665 -43.16557 17 ft 2 kts 319°
2026-05-04 23:12 -22.90644 -43.16546 17 ft 5 kts 49°
2026-05-04 23:13 -22.90640 -43.16517 18 ft 1 kts 90°
2026-05-04 23:13 -22.90642 -43.16488 18 ft 2 kts 121°
2026-05-04 23:13 -22.90663 -43.16483 18 ft 6 kts 174°
2026-05-04 23:13 -22.90687 -43.16482 18 ft 6 kts 178°
2026-05-04 23:14 -22.90705 -43.16480 18 ft 0 kts 176°